TimeNZDT,TemperatureF,Dew PointF,Humidity,Sea Level PressureIn,VisibilityMPH,Wind Direction,Wind SpeedMPH,Gust SpeedMPH,PrecipitationIn,Events,Conditions,WindDirDegrees,DateUTC
12:00 AM,44.6,41.0,87,29.95,-9999.0,NNW,3.5,-,N/A,,Clear,330,2012-11-04 11:00:00
1:00 AM,41.0,39.2,93,29.98,-9999.0,North,2.3,-,N/A,,Clear,10,2012-11-04 12:00:00
2:00 AM,39.2,37.4,93,29.98,-9999.0,West,2.3,-,N/A,,Clear,260,2012-11-04 13:00:00
3:00 AM,39.2,37.4,93,29.98,-9999.0,North,2.3,-,N/A,,Clear,360,2012-11-04 14:00:00
4:00 AM,37.4,35.6,93,30.01,-9999.0,SSE,4.6,-,N/A,,Clear,160,2012-11-04 15:00:00
5:00 AM,42.8,39.2,87,30.01,-9999.0,SW,10.4,-,N/A,,Clear,230,2012-11-04 16:00:00
6:00 AM,46.4,42.8,87,30.06,6.2,SSW,15.0,-,N/A,,Mostly Cloudy,200,2012-11-04 17:00:00
7:00 AM,48.2,42.8,82,30.09,6.2,South,13.8,-,N/A,,Mostly Cloudy,180,2012-11-04 18:00:00
8:00 AM,48.2,41.0,76,30.12,6.2,South,8.1,-,N/A,,Mostly Cloudy,190,2012-11-04 19:00:00
9:00 AM,50.0,41.0,71,30.12,6.2,SSW,12.7,-,N/A,,Mostly Cloudy,200,2012-11-04 20:00:00
10:00 AM,48.2,41.0,76,30.15,6.2,SSW,15.0,-,N/A,,Drizzle,200,2012-11-04 21:00:00
11:00 AM,48.2,41.0,76,30.15,6.2,South,15.0,-,N/A,Rain,Light Rain Showers,180,2012-11-04 22:00:00
12:00 PM,50.0,41.0,71,30.18,6.2,SSW,11.5,-,N/A,Rain,Light Rain Showers,200,2012-11-04 23:00:00
1:00 PM,50.0,41.0,71,30.18,6.2,South,15.0,-,N/A,Rain,Light Rain Showers,190,2012-11-05 00:00:00
2:00 PM,51.8,41.0,67,30.18,6.2,South,13.8,-,N/A,,Mostly Cloudy,180,2012-11-05 01:00:00
3:00 PM,50.0,37.4,62,30.21,6.2,South,16.1,-,N/A,,Mostly Cloudy,180,2012-11-05 02:00:00
4:00 PM,48.2,37.4,66,30.21,6.2,South,17.3,-,N/A,,Mostly Cloudy,190,2012-11-05 03:00:00
5:00 PM,48.2,35.6,62,30.21,6.2,South,15.0,-,N/A,,Mostly Cloudy,190,2012-11-05 04:00:00
6:00 PM,48.2,33.8,58,30.24,6.2,SSW,12.7,-,N/A,,Mostly Cloudy,200,2012-11-05 05:00:00
7:00 PM,46.4,33.8,62,30.27,6.2,SSW,11.5,-,N/A,,Mostly Cloudy,200,2012-11-05 06:00:00
8:00 PM,46.4,33.8,62,30.30,6.2,SSW,9.2,-,N/A,,Mostly Cloudy,210,2012-11-05 07:00:00
9:00 PM,44.6,33.8,66,30.30,6.2,SW,8.1,-,N/A,,Mostly Cloudy,230,2012-11-05 08:00:00
10:00 PM,44.6,37.4,76,30.33,6.2,WSW,5.8,-,N/A,,Mostly Cloudy,250,2012-11-05 09:00:00
11:00 PM,44.6,35.6,71,30.36,6.2,SW,10.4,-,N/A,,Mostly Cloudy,230,2012-11-05 10:00:00